Location: Gro�bocka
(50.8204°N, 11.9702°E)
Time: 23:07:14
(UTC+00:00)

X-37B - Pass Details

Date: 30 June 2021
Orbit: 383 x 392 km, 45.0° (Epoch: 01 July)

Event Time Altitude Azimuth Distance (km) Brightness Sun altitude
Rises 20:07:55 0° 258° (WSW) 2,259 4.9 -5.3°
Reaches altitude 10° 20:10:09 10° 246° (WSW) 1,404 3.7 -5.5°
Maximum altitude 20:12:53 27° 186° (S) 775 1.7 -5.8°
Drops below altitude 10° 20:15:37 10° 126° (SE) 1,401 2.8 -6.1°
Enters shadow 20:16:10 - 121° (ESE) 1,603 3.1 -6.1°
